Location: Poughquag
(41.6090°N, 73.6820°W)
Time: 08:32:58
(UTC-05:00)

Altair - Pass Details

Date: 05 December 2023
Orbit: 1501 x 1682 km, 47.2° (Epoch: 02 March)

Event Time Altitude Azimuth Distance (km) Brightness Sun altitude
Rises 16:19:48 0° 289° (WNW) 4,654 10.7 -0.1°
Reaches altitude 10° 16:24:11 10° 272° (W) 3,656 10.6 -0.8°
Maximum altitude 16:29:31 17° 235° (SW) 3,114 10.8 -1.6°
Drops below altitude 10° 16:34:53 10° 198° (SSW) 3,648 10.3 -2.5°
Sets 16:39:17 0° 180° (S) 4,641 10.4 -3.2°
